FW1932 Weather Reports


time (UTC)temp
C
wind
direction
speed
KPH
gust
KPH
rain 1hr
cm
rain 24hr
cm
rain mn
cm
humidity
%
barometer
mb
20260831214522 18 100 0.0 4.8 0.00 0.43 0.33 73 1023.3
20260831213021 18 78 1.6 3.2 0.00 0.43 0.33 72 1023.2
20260831211520 18 75 0.0 1.6 0.00 0.43 0.33 72 1023.1
20260831210021 18 77 0.0 1.6 0.00 0.43 0.33 71 1023.0
20260831204518 19 208 0.0 1.6 0.00 0.43 0.33 70 1022.8
20260831203017 20 243 0.0 3.2 0.00 0.43 0.33 68 1022.8
20260831201523 20 86 0.0 1.6 0.00 0.43 0.33 68 1022.6
20260831200013 20 84 0.0 3.2 0.00 0.43 0.33 67 1022.5
20260831194512 20 125 0.0 0.0 0.00 0.43 0.33 66 1022.3
20260831193014 20 127 0.0 0.0 0.00 0.43 0.33 66 1022.2
20260831191510 21 127 0.0 0.0 0.00 0.43 0.33 63 1022.0
20260831190010 21 127 0.0 0.0 0.00 0.43 0.33 61 1022.0
20260831184506 22 230 0.0 9.7 0.00 0.43 0.33 59 1021.7
20260831183005 22 220 1.6 8.0 0.00 0.43 0.33 56 1021.6
20260831181549 22 244 0.0 1.6 0.00 0.43 0.33 57 1021.2
20260831174551 23 242 1.6 4.8 0.00 0.43 0.33 55 1020.8
20260831173046 23 249 1.6 6.4 0.00 0.43 0.33 54 1020.8
20260831171545 23 262 1.6 9.7 0.00 0.43 0.33 53 1020.9
20260831170045 24 257 0.0 6.4 0.00 0.43 0.33 54 1020.8
20260831164549 25 238 0.0 4.8 0.00 0.43 0.33 52 1020.9
20260831163045 25 69 1.6 4.8 0.00 0.43 0.33 51 1020.9
20260831161550 24 239 4.8 16.1 0.00 0.43 0.33 51 1020.8
20260831160042 24 250 8.0 22.5 0.00 0.43 0.33 49 1020.8
20260831154542 25 223 1.6 14.5 0.00 0.43 0.33 49 1021.0
20260831153041 26 66 8.0 25.7 0.00 0.43 0.33 46 1021.1
20260831151539 26 224 4.8 16.1 0.00 0.43 0.33 48 1020.6
20260831150039 26 103 4.8 20.9 0.00 0.43 0.33 53 1020.5
20260831144538 25 203 6.4 20.9 0.00 0.43 0.33 54 1020.4
20260831143038 26 237 0.0 9.7 0.00 0.43 0.33 53 1020.0
20260831141538 26 206 4.8 19.3 0.00 0.43 0.33 51 1020.1
20260831140047 26 218 1.6 8.0 0.00 0.43 0.33 54 1020.0
20260831134539 26 261 3.2 16.1 0.00 0.43 0.33 53 1020.0
20260831133034 26 103 1.6 11.3 0.00 0.43 0.33 52 1020.0
20260831131531 26 304 1.6 17.7 0.00 0.43 0.33 54 1019.8
20260831130029 26 274 8.0 24.1 0.00 0.43 0.33 52 1020.0
20260831124528 26 247 6.4 14.5 0.00 0.43 0.33 50 1020.0
20260831123030 25 200 0.0 12.9 0.00 0.43 0.33 53 1020.0
20260831121532 25 234 8.0 20.9 0.00 0.43 0.33 51 1020.3
20260831120022 25 238 3.2 25.7 0.00 0.43 0.33 53 1020.5
20260831114520 23 277 6.4 19.3 0.00 0.43 0.33 55 1020.6
20260831113018 23 250 1.6 16.1 0.00 0.43 0.33 57 1020.5
20260831111516 23 214 3.2 11.3 0.00 0.43 0.33 58 1020.8
20260831110016 23 243 3.2 20.9 0.00 0.43 0.33 58 1020.8
20260831104522 23 233 1.6 17.7 0.00 0.43 0.33 60 1020.7
20260831103013 22 229 4.8 16.1 0.00 0.43 0.33 60 1020.8
20260831101513 22 250 9.7 22.5 0.00 0.43 0.33 60 1020.9
20260831100017 22 219 3.2 19.3 0.00 0.43 0.33 63 1020.9
20260831094507 21 247 4.8 22.5 0.00 0.43 0.33 63 1021.3
20260831093010 21 252 9.7 20.9 0.00 0.43 0.33 64 1021.2
20260831091505 21 255 6.4 17.7 0.00 0.43 0.33 66 1021.4
20260831084610 20 226 4.8 16.1 0.00 0.43 0.33 71 1021.4
20260831083058 20 231 4.8 19.3 0.00 0.43 0.33 71 1021.2
20260831081555 20 245 3.2 11.3 0.00 0.43 0.33 75 1021.0
20260831080104 19 257 0.0 11.3 0.00 0.43 0.33 78 1021.0
20260831074553 19 254 4.8 17.7 0.00 0.43 0.33 78 1021.1
20260831073054 18 230 4.8 12.9 0.00 0.43 0.33 79 1021.0
20260831071650 18 241 6.4 14.5 0.00 0.43 0.33 79 1020.9
20260831070056 18 207 3.2 8.0 0.00 0.43 0.33 81 1020.9
20260831064548 18 241 0.0 3.2 0.00 0.43 0.33 83 1020.9
20260831063048 17 250 1.6 6.4 0.00 0.43 0.33 84 1020.8
20260831061546 17 255 1.6 6.4 0.00 0.43 0.33 87 1020.7
20260831060046 17 246 1.6 4.8 0.00 0.43 0.33 87 1020.5
20260831054545 17 252 1.6 6.4 0.00 0.43 0.33 87 1020.6
20260831053043 17 239 1.6 6.4 0.00 0.43 0.33 87 1020.3
20260831051546 17 245 1.6 8.0 0.00 0.43 0.33 87 1020.3
20260831050039 17 241 1.6 9.7 0.00 0.43 0.33 87 1020.1
20260831044550 17 285 3.2 11.3 0.00 0.43 0.33 88 1020.0
20260831043036 17 203 4.8 11.3 0.00 0.43 0.33 89 1019.9
20260831041545 18 212 3.2 12.9 0.00 0.43 0.33 89 1019.9
20260831040032 18 240 1.6 11.3 0.00 0.43 0.33 90 1019.7
20260831034531 18 246 0.0 3.2 0.00 0.43 0.33 91 1019.5
20260831033031 18 250 0.0 3.2 0.00 0.43 0.33 90 1019.3
20260831031530 18 259 0.0 4.8 0.00 0.43 0.33 90 1019.3
20260831030028 18 240 0.0 3.2 0.00 0.43 0.33 89 1019.3
20260831024529 18 245 1.6 4.8 0.00 0.43 0.33 89 1019.1
20260831023026 18 251 0.0 4.8 0.00 0.43 0.33 88 1019.1
20260831021533 18 259 1.6 4.8 0.00 0.43 0.33 88 1019.0
20260831020025 18 254 0.0 4.8 0.00 0.43 0.33 89 1018.8
20260831014526 18 236 1.6 6.4 0.00 0.43 0.33 89 1018.6
20260831013027 18 246 3.2 8.0 0.00 0.43 0.33 89 1018.7
20260831011522 18 225 4.8 9.7 0.00 0.43 0.33 89 1018.7
20260831010022 18 253 3.2 11.3 0.00 0.43 0.33 88 1018.8
20260831004619 18 239 3.2 9.7 0.00 0.43 0.33 89 1018.8
20260831003019 18 235 3.2 9.7 0.00 0.43 0.33 88 1018.4
20260831001517 18 248 3.2 9.7 0.00 0.43 0.33 89 1018.5
20260831000033 18 252 1.6 12.9 0.05 0.43 0.33 88 1018.2
20260830234516 18 264 0.0 3.2 0.05 0.43 0.33 90 1018.1
20260830233019 18 248 0.0 4.8 0.05 0.43 0.33 90 1018.0
20260830231512 18 239 3.2 11.3 0.05 0.43 0.33 89 1018.2
20260830230013 18 81 0.0 9.7 0.23 0.36 0.25 92 1018.2
20260830224508 18 250 0.0 4.8 0.36 0.36 0.25 93 1017.8
20260830223006 18 94 1.6 6.4 0.36 0.36 0.25 91 1016.4
20260830221502 19 103 0.0 4.8 0.36 0.36 0.25 89 1017.0